Member area
Imprimable
Challenges > Delhalle - Gougnies, 01/04/2007, BEL - Le Trail de l'Entre-Sambre-et-Meuse
List of reports > Delhalle - Trail - 33km - Classement scratch
Search: Page: [1]
114 Entries
 
Complains are not accepted anymore. Results are final.
PlaceNrNameAgeNATLeagueTeamRealTimeTkmMoy.ScrPtsCity
1.180GILBERT 2 Michel 240BELUACBOUFFIOL2:32:242:32:264:38 12.9930MARCINELLE
2.2014MATHOT Patrice40BELJC HSH2:34:362:34:384:42 12.8040HAM-SUR-HEURE
3.2031BOSCH John44NLDATLETIEK MAASTRICHT2:37:412:37:434:47 12.5570BERG TEN TERBLIJT
4.1172DIEPENDAELE Rudi44BELACLOTOTAL2:40:552:40:594:53 12.30100LA HESTRE
5.1631CADO Paul47BELFLEUCLARA2:43:162:43:204:57 12.12120LIGNY
6.2214CAPELLE Christian40BELRCB2:44:072:44:104:59 12.06130BRUXELLES
7.2213CARETTE Alain41BELJCL2:44:292:44:295:00 12.04140TEMPLEUVE
8.2008LANGHENDRIES Xavier48BELETCHIEVR2:46:342:46:425:04 11.88160CHIÈVRES
9.2271SURKIJN Erik42BELDCLA2:48:562:49:045:08 11.71190HALEN
10.2016DE NARDI Jean-Carlo45BEL2:49:062:49:065:08 11.71200NAMUR
11.1328JOSEPH Bernard45BELCEPAL2:49:572:50:005:10 11.65230RHODE -SAINT-GENESE
12.2034ROSSI Claude49BELJOGGING +2:53:512:53:555:17 11.38250YVOIR
13.2238GREGOIRE Michel45BEL2:54:402:54:465:18 11.33270FLAVION
14.2306BURNIAT Etienne46BELRRCB2:55:392:55:485:20 11.26290
15.2039THIEBAUX Thierry42BEL2:55:452:55:545:20 11.26300CHARLEROI
16.2038MARCHAND Michel40BEL2:55:552:56:045:21 11.25310LUTTRE
17.2047RENARD Yves41BEL2:56:012:56:195:21 11.23320PESCHE
18.2036FLEURY Philippe44BELJACO2:58:162:58:345:25 11.09360MARIEMBOURG
19.2309CEROLI Luigino46BELESM2:58:312:58:365:25 11.09370
20.2225HORÉ François40BELGERPINNES&CO2:58:512:58:535:26 11.07380HANZINNE
21.2011DURITA Zolika43BELJ.E.T.J.E.T.2:59:332:59:455:27 11.02390ENGHIEN
22.2030KOEIJMANS Paul48NLDATLETIEK M2:59:532:59:555:28 11.01400MAASTRICHT
23.586DAMOISAUX Pascal42BELRCN3:00:293:00:385:29 10.96440NAMUR
24.2290VANDER TRAPPEN Jo48BELACG3:01:133:01:155:30 10.92450GERAARDSBERGEN
25.215STAPELLE Eric44BELSMAC3:01:493:01:565:31 10.88460BOIS DE VILLERS
26.3004DERVILLE Marcel48BEL3:02:473:03:065:33 10.81480CHARLEROI
27.2261PICCINNI Giuseppe45BELCRAC3:04:093:04:135:35 10.75500
28.205RASSART Patrick49BELACLO3:04:353:04:385:36 10.72510MORLANWELZ
29.679MORONE Yves40BEL3:04:243:04:405:36 10.72520HAMOIS
30.2012DURITA Janika43BELJ.E.T.J.E.T.3:05:513:06:015:39 10.64570ENGHIEN
31.2276FLAMME Jean-Michel48BELJCSA3:06:443:07:015:41 10.59590WARCHIN
32.360WAROUX Patrick44BELETCHIEVR3:08:253:08:325:43 10.50610CASTEAU
33.2209BELLEMANS Philippe43BEL3:09:043:09:235:45 10.45650NEUVILLE
34.2244VAN RHIJN Michel40BELOEH3:09:483:09:545:46 10.43660HENNUYÈRES
35.1114DEBREUX Didier43BEL3:11:023:11:245:48 10.34690MARBEHAN
36.2272FLAMME Pascal43BELPRFM3:11:183:11:335:49 10.34720PÉRUWELZ
37.837CEUPPENS Paul46BELHAMURABI3:12:173:12:355:51 10.28740LINT
38.2249WASTIN Bruno45BELRCB3:13:123:13:185:52 10.24760BRUXELLES
39.2007DEVALÉRIOLA Patrick43BELSMAC3:13:373:13:445:53 10.22780SUARLÉE
40.2022T'KINT Peter45BELACG3:14:073:14:095:53 10.20800GALMAARDEN
41.2002MAES Luc45BELJC HSH3:15:273:15:315:56 10.13830HAM SUR HEURE
42.2013FOSSEZ Pascal47BELESM3:16:053:16:265:58 10.08860CHÂTELINEAU
43.2027SOUDAN Didier47BEL3:16:243:16:275:58 10.08870
44.2289COLLART Christophe41BELJTRR3:16:383:16:585:59 10.05890CERFONTAINE
45.404TILBURGS Frank40BELAVN3:17:283:17:456:00 10.01930MEER
46.1260VAN BERGEN Alain46BELFLEUFLEURUS3:18:263:18:326:01 9.97960AISEAU
47.193DI BIASE Renato42BELBOUFFIOL3:21:403:21:536:08 9.811050COUILLET
48.208BOUTEFEU Jacques47BELESMRRTC3:21:463:22:116:08 9.791070MONTIGNIES-SUR-SAMBRE
49.482THIJS Chris41BELKAPUCIJN3:22:553:23:106:10 9.751090TERVUREN
50.2296FIEVET Joel42BEL3:24:543:25:096:13 9.651130BRUXELLES
51.2050DEHAS Djellali48FRAFREMEN3:24:583:25:226:14 9.641140AUBRIVES
52.2052OULAD Ahmed48FRAJTRR3:24:573:25:226:14 9.641150VIREUX WALLERAND
53.2270RAIMOND Eric48BELJACO3:25:483:26:066:15 9.611170BAILEUX
54.1307HARMEGNIES Michel46BELSPIBOR3:26:103:26:196:16 9.601180HORNU
55.2312HOORENS Carlos42BELLDLV3:28:203:28:276:19 9.501250
56.2257PEETERS Bernard49BELJAMES3:28:223:28:356:20 9.491280WAVRE
57.2284BIERNAUX Benoit46BELRC NAMUR3:29:113:29:226:21 9.461320NAMUR
58.2202BENOIT Simon43BEL3:29:203:29:316:21 9.451340PONT-DE-LOUP
59.274LEFEBVRE Andre41FRA3:33:083:33:286:29 9.281370SAPOGNE SUR MARCHE
60.1340MALENGREAUX Patrice45BELTORTUES3:33:593:34:196:30 9.241390BRAY
61.1728MONCOUSIN Patrick44BELOTC3:36:063:36:326:34 9.141430MONTIGNIES/SUR/SAMBRE
62.318STICKER Johan48BELOXYGENE TRI3:37:363:38:016:37 9.081470
63.815COLOMBI Jean-Marc43BELBJB3:39:533:40:036:41 9.001500LA LOUVIERE
64.2292KENTANE Hadewig46BELAGG3:40:503:40:536:42 8.961530
65.498HEYNDRICKX Jan45BELKAPUCIJN3:40:583:41:216:43 8.951540BERTEM
66.2037PONCHELET Alain41BEL3:42:293:42:416:45 8.891590FLAWINNE
67.2274BONSIGNORE Vincent48BELACLO3:42:343:42:446:45 8.891600LA LOUVIÈRE
68.2024PUYLAERT Dominique43BELRUNNING CLUB NAMUR3:43:083:43:176:46 8.871610JAMBES
69.2010DESCAMPS Etienne44BEL3:43:593:44:066:48 8.841620FLORENNES
70.584UBIETA Didier46BELFOUL PLAIS3:46:053:46:066:52 8.761650VINALMONT
71.1958POELMANS Dominique46BELRC NAMUR3:46:003:46:106:52 8.751660BOUGE
72.2203BALTUS Pascal44BELRC NAMUR3:46:213:46:316:52 8.741680ANDENNE
73.2206DE VOS Eric41BEL3:46:293:46:316:52 8.741690LA BRUYÈRE
74.561HAINAUT Charles48BEL3:46:433:46:506:53 8.731710GERPINNES
75.1473RUELLE Eric47BELJET3:48:523:49:076:57 8.641770CHASTRE
76.2285PATERNOSTRE Jean-Jacques45BELWIKIKI3:50:033:50:086:59 8.601810
77.377SPRIMONT Olivier44BEL3:50:593:51:167:01 8.561850UCCLE
78.1661COOREMANS Guy41BELRC NAMUR3:51:263:51:347:02 8.551890SOYE
79.735JORDANT Benoit45BELARCHJOGGING +3:52:563:53:037:04 8.501910YVOIR
80.1924JADOT Pierre47BELESM3:53:473:54:117:06 8.451930MONTIGNY LE TILLEUL
81.2004MERTENS Marc41BELSMAC3:54:153:54:237:07 8.451950MALONNE
82.1779TITART Paul46BELRCBESM3:55:493:56:117:10 8.381980BRUXELLES
83.1734SIOLI Serge48BELESM3:55:423:56:147:10 8.381990MARCHIENNE-AU-PONT
84.1675GANTOIS Gerald40BELEPIDEMIE3:57:063:57:117:12 8.352010MOMALLE
85.594PARDON Pascal40BEL3:58:553:59:117:15 8.282030MELLET
86.1768DENEFFE Philippe46BELJCHOUYET3:59:213:59:387:16 8.262040HOUYET
87.1769DUMONT Alain47BELRC NAMUR4:01:544:02:097:21 8.182050JAMBES
88.2278ADANT Marc47BEL4:06:144:06:147:28 8.042080
89.2253MASSIN Pierre41BELMED4:09:134:09:367:34 7.932130
90.1912COLSON Pascal45BELACLO4:13:344:13:447:42 7.802200MANAGE
91.1436DUVIVIER Philippe44BELTORTUES4:19:314:19:437:53 7.622250ARBRE
92.574MAGNEE Michel42BELRC NAMUR4:29:074:29:228:10 7.352280FLOREFFE
DNF1963BISIAU Philippe46FRALILLE
DNF2210CAUCHY Eric49BELCPMVBERZÉE
DNF2260CRUSNAIRE Marc45BELRONVAUHÉVILLERS
DNF2044DE DONDER Bart46BELOPWIJKOPWIJK
DNF2212DEFLOOR Philippe44BELBVACBERCHEM (ANTWERPEN)
DNF2265DEMPTINNE Armand48BEL
DNF2302DETAILLE Thierry43BEL
DNF2006DI CATALDO Michel48BELCAT RUNING TEAMTHY LE CHATEAU
DNF2049DUBUIS Claude49BELUAC
DNF2009FRANCIS Alain45BELFLEUESMRANSART
DNF2263LANGLET Jean Louis49BELMARCINELLE
DNF1529LOMBART Frederic40BELGEMBLOUX
DNF1831LOMBET Benoit49BELARCHMIECRET
DNF3009MASSON Thierry41BELJOGGANSJETTE
DNF2254MONNOYER Maurice47BELGERPINNES&COGOUGNIES
DNF608ROSSI Stephane41BELROSCO TEAMROBERTVILLE
DNF2259ROSSI Tino47BELCRAC
DNF2287SALSANOV Ibragim47BELLWAWATERLOO
DNF2299TRAN-NGOC Emmanuel47BEL
DNF2242VANVOLSEM Ludo48BELHALLLE
DNF2301VERMEULEN Bernard49BELOXYGENE TRIMONT-SAINTE-GENEVIÈVE
DNF2046WALRAVENS D42BELSPRIMONTANGLEUR
DNF: did not finish; DSQ: disqualified; Speed in km/h
Page: [1]